Regional Weather Roundup
Issued by NWS Goodland, KS

Home | Current Version | Previous Version | Text Only | Print | Product List | Glossary Off
Versions: 1 2 3 4 5 6 7 8 9 10 11 12 13 14 15 16 17 18 19 20 21 22 23 24 25 26 27 28 29 30 31 32 33 34 35 36 37 38 39 40 41 42 43 44 45 46 47 48 49 50

000
ASUS43 KGLD 250308
RWRGLD

GOODLAND FORECAST AREA HOURLY WEATHER ROUNDUP
NATIONAL WEATHER SERVICE GOODLAND KS
800 PM MST WED DEC 24 2014

...OFFICIAL OBSERVATIONS...

CITY           SKY/WX    TMP DP  RH WIND       PRES   REMARKS
GOODLAND KS    CLOUDY    36  18  48 SW15      29.61F
HILL CITY KS   CLEAR     34  14  43 SW6       29.66F
IMPERIAL NEB   MOCLDY    32  23  69 SW8       29.57F
MCCOOK NEB     MOCLDY    36  23  59 SW9       29.61F
AKRON CO       CLOUDY    36  22  56 S9        29.53F
BURLINGTON CO  CLOUDY    33  19  56 SW10      29.59F
LIMON CO       CLOUDY    32  16  51 SE8       29.61F
$$

...UNOFFICIAL OBSERVATIONS...

CITY           SKY/WX    TMP DP  RH WIND       PRES   REMARKS
COLBY KS       CLEAR     34  25  69 SW9       29.63F
GOVE KS          N/A     36  32  85 MISG        N/A
NORTON KS      CLEAR     34  16  47 SW7       29.62F
SHARON SPRINGS   N/A     32  17  53 SW12        N/A
KIT CARSON CO    N/A     29  20  67 MISG        N/A
YUMA CO          N/A     33  22  63 S7          N/A
$$


USA.gov is the U.S. government's official web portal to all federal, state and local government web resources and services.